Location: Acequia del Cap
(41.7000°N, 0.6167°E)
Time: 17:10:10
(UTC+00:00)

Cosmos 2227 Rocket - Pass Details

Date: 07 August 2020
Orbit: 840 x 844 km, 71.0° (Epoch: 23 September)

Event Time Altitude Azimuth Distance (km) Brightness Sun altitude
Exits shadow 01:33:17 67° 103° (ESE) 912 2.3 -28.4°
Drops below altitude 10° 01:38:48 10° 29° (NNE) 2,470 5.6 -27.9°
Sets 01:41:16 0° 27° (NNE) 3,408 6.6 -27.7°
